Mineral Wells, TX

6:57 PM CDT on September 30, 2016 (GMT -0500)
Mineral Wells

Weather History for KMWL - June, 2013

Change the Weather History Date:

Thursday, June 27, 2013

  Actual Average Record
Temperature  
Mean Temperature 86 °F -  
Max Temperature 102 °F 90 °F 104 °F (2011)
Min Temperature 73 °F 70 °F 57 °F (2006)
Cooling Degree Days 22    
Growing Degree Days 36 (Base 50)    
Moisture  
Dew Point 65 °F    
Average Humidity 49    
Maximum Humidity 76    
Minimum Humidity 27    
Precipitation  
Precipitation 0.00 in - - ()
Sea Level Pressure  
Sea Level Pressure 29.89 in    
Wind  
Wind Speed 8 mph (SSE)    
Max Wind Speed 13 mph    
Max Gust Speed 17 mph    
Visibility 10 miles    
Events      
Averages and records for this station are not official NWS values.
T = Trace of Precipitation, MM = Missing Value Source: NWS Daily Summary

Daily Weather History Graph

Daily Weather History Graph

Search for Another Location

Airport or City:

Trip Planner

Search our weather history database for the weather conditions in past years. The results will help you decide how hot, cold, wet, or windy it might be!

Date:

Astronomy

Jun. 27, 2013 Rise Set
Actual Time 6:26 AM CDT 8:44 PM CDT
Civil Twilight 5:57 AM CDT 9:12 PM CDT
Nautical Twilight 5:22 AM CDT 9:47 PM CDT
Astronomical Twilight 4:44 AM CDT 10:25 PM CDT
Moon No Moon Rise 11:12 AM CDT (6/27)
Length of Visible Light 15h 15m
Length of Day
14h 17m
Waning Gibbous, 76% of the Moon is Illuminated
Jun 27
Waning Gibbous
Jun 29
Last Quarter
Jul 8
New
Jul 15
First Quarter
Jul 22
Full

Hourly Weather History & Observations

Time (CDT) Temp. Heat Index Dew Point Humidity Pressure Visibility Wind Dir Wind Speed Gust Speed Precip Events Conditions
12:53 AM 81.0 °F 83.0 °F 66.0 °F 60% 29.86 in 10.0 mi SE 6.9 mph - N/A   Clear
1:53 AM 80.1 °F 81.9 °F 64.9 °F 60% 29.84 in 10.0 mi SSE 8.1 mph - N/A   Clear
2:53 AM 79.0 °F - 64.9 °F 62% 29.85 in 10.0 mi SE 10.4 mph - N/A   Clear
3:53 AM 75.9 °F - 64.9 °F 69% 29.86 in 10.0 mi SE 8.1 mph - N/A   Clear
4:53 AM 73.9 °F - 64.9 °F 73% 29.89 in 10.0 mi SE 4.6 mph - N/A   Clear
5:53 AM 73.9 °F - 66.0 °F 76% 29.91 in 10.0 mi ESE 5.8 mph - N/A   Clear
6:53 AM 73.9 °F - 66.0 °F 76% 29.93 in 10.0 mi SSE 6.9 mph - N/A   Clear
7:53 AM 77.0 °F - 66.9 °F 71% 29.96 in 10.0 mi ESE 4.6 mph - N/A   Clear
8:53 AM 81.0 °F 84.1 °F 69.1 °F 67% 29.98 in 10.0 mi South 10.4 mph - N/A   Clear
9:53 AM 86.0 °F 90.1 °F 69.1 °F 57% 29.97 in 10.0 mi SSW 11.5 mph - N/A   Clear
10:53 AM 90.0 °F 92.4 °F 66.0 °F 45% 29.94 in 10.0 mi South 11.5 mph - N/A   Clear
11:53 AM 93.9 °F 95.6 °F 64.0 °F 37% 29.94 in 10.0 mi SW 11.5 mph - N/A   Clear
12:53 PM 96.1 °F 98.3 °F 64.0 °F 35% 29.93 in 10.0 mi SSW 11.5 mph - N/A   Clear
1:53 PM 98.1 °F 100.7 °F 64.0 °F 33% 29.91 in 10.0 mi Variable 5.8 mph 16.1 mph N/A   Clear
2:53 PM 100.0 °F 101.8 °F 63.0 °F 29% 29.89 in 10.0 mi South 8.1 mph - N/A   Clear
3:53 PM 100.0 °F 101.8 °F 62.1 °F 29% 29.88 in 10.0 mi Variable 6.9 mph - N/A   Clear
4:53 PM 100.9 °F 102.1 °F 61.0 °F 27% 29.86 in 10.0 mi SE 12.7 mph 17.3 mph N/A   Clear
5:53 PM 100.0 °F 101.2 °F 61.0 °F 28% 29.85 in 10.0 mi South 9.2 mph - N/A   Clear
6:53 PM 99.0 °F 101.7 °F 64.0 °F 32% 29.83 in 10.0 mi SE 9.2 mph - N/A   Clear
7:53 PM 97.0 °F 99.3 °F 64.0 °F 34% 29.82 in 10.0 mi SE 10.4 mph - N/A   Clear
8:53 PM 91.9 °F 93.3 °F 64.0 °F 39% 29.83 in 10.0 mi SE 8.1 mph - N/A   Clear
9:53 PM 86.0 °F 86.8 °F 63.0 °F 46% 29.86 in 10.0 mi SE 6.9 mph - N/A   Clear
10:53 PM 84.0 °F 85.4 °F 64.0 °F 51% 29.91 in 10.0 mi SE 6.9 mph - N/A   Clear
11:53 PM 82.9 °F 84.0 °F 63.0 °F 51% 29.90 in 10.0 mi SE 10.4 mph - N/A   Clear